This is the latest recevied weather packets stored in our database for station/object WA1TYB-13. If no packets are shown the sender has not sent any weather packets the latest 10 day(s).
| Time | Temp. | Humidity | Pressure | Rain* | Wind** | Luminosity | Snow |
|---|---|---|---|---|---|---|---|
| 1778090101 | 11.11° C | 36% | 1017.8 hPa | 0 mm | - | 669 W/m² | - |
| 1778089792 | 11.67° C | 35% | 1017.7 hPa | 0 mm | - | 681 W/m² | - |
| 1778089491 | 10.56° C | 36% | 1017.8 hPa | 0 mm | - | 684 W/m² | - |
| 1778089187 | 10.56° C | 36% | 1018 hPa | 0 mm | - | 708 W/m² | - |
| 1778088884 | 10.56° C | 37% | 1018 hPa | 0 mm | - | 698 W/m² | - |
| 1778088581 | 10.56° C | 37% | 1018.2 hPa | 0 mm | - | 686 W/m² | - |
| 1778088278 | 10° C | 36% | 1018.2 hPa | 0 mm | - | 702 W/m² | - |
| 1778087974 | 10° C | 38% | 1018.1 hPa | 0 mm | - | 697 W/m² | - |
| 1778087672 | 10° C | 38% | 1018.4 hPa | 0 mm | - | 701 W/m² | - |
| 1778087370 | 9.44° C | 40% | 1018.2 hPa | 0 mm | - | 685 W/m² | - |
| 1778087066 | 8.89° C | 41% | 1018.2 hPa | 0 mm | - | 661 W/m² | - |
| 1778086759 | 9.44° C | 42% | 1018.6 hPa | 0 mm | - | 686 W/m² | - |
| 1778086457 | 9.44° C | 40% | 1018.5 hPa | 0 mm | - | 665 W/m² | - |
| 1778086153 | 8.89° C | 41% | 1018.7 hPa | 0 mm | - | 634 W/m² | - |
| 1778085850 | 8.33° C | 43% | 1019 hPa | 0 mm | - | 658 W/m² | - |
| 1778085548 | 7.78° C | 44% | 1018.9 hPa | 0 mm | - | 652 W/m² | - |
| 1778085242 | 8.33° C | 43% | 1019 hPa | 0 mm | - | 611 W/m² | - |
| 1778084937 | 8.33° C | 43% | 1019.3 hPa | 0 mm | - | 590 W/m² | - |
| 1778084635 | 8.33° C | 44% | 1019.3 hPa | 0 mm | - | 588 W/m² | - |
| 1778084332 | 7.78° C | 47% | 1019.1 hPa | 0 mm | - | 562 W/m² | - |
| 1778084030 | 7.22° C | 46% | 1019.4 hPa | 0 mm | - | 544 W/m² | - |
| 1778083727 | 7.22° C | 47% | 1019.5 hPa | 0 mm | - | 525 W/m² | - |
| 1778083424 | 7.22° C | 45% | 1019.5 hPa | 0 mm | - | 509 W/m² | - |
| 1778083123 | 7.22° C | 47% | 1019.6 hPa | 0 mm | - | 487 W/m² | - |
| 1778082819 | 6.67° C | 47% | 1019.8 hPa | 0 mm | - | 455 W/m² | - |
* Rain latest hour (hover to see other rain measurements)
** Current wind speed in m/s (hover to see current wind gust speed)